Location: Morlupo
(42.1333°N, 12.5000°E)
Time: 15:12:54
(UTC+00:00)

CZ-2C R/B - Pass Details

Date: 18 September 2020
Orbit: 785 x 870 km, 98.2° (Epoch: 25 October)

Event Time Altitude Azimuth Distance (km) Brightness Sun altitude
Rises 17:37:58 0° 29° (NNE) 3,421 5.6 -5.3°
Reaches altitude 10° 17:41:06 10° 47° (NE) 2,494 4.8 -5.9°
Maximum altitude 17:44:54 19° 91° (E) 1,953 4.0 -6.6°
Drops below altitude 10° 17:48:44 10° 135° (SE) 2,505 4.7 -7.3°
Sets 17:51:51 0° 153° (SSE) 3,441 5.5 -7.9°
